Regional Weather Roundup
Issued by NWS New Orleans/Baton Rouge, LA

Home | Current Version | Previous Version | Text Only | Print | Product List | Glossary On
Versions: 1 2 3 4 5 6 7 8 9 10 11 12 13 14 15 16 17 18 19 20 21 22 23 24 25 26 27
000
ASUS44 KLIX 271413
RWRLIX
NEW ORLEANS REGIONAL WEATHER ROUNDUP
NATIONAL WEATHER SERVICE NEW ORLEANS LA
900 AM CDT TUE JUN 27 2017

NOTE: "FAIR" INDICATES FEW OR NO CLOUDS BELOW 12,000 FEET WITH NO
      SIGNIFICANT WEATHER AND/OR OBSTRUCTIONS TO VISIBILITY.
      SKY/WX - SKY CONDITION AND SIGNIFICANT WEATHER.
      TMP - AIR TEMPERATURE.     DP    - DEWPOINT TEMPERATURE.
      RH  - RELATIVE HUMIDITY.   PRES  - PRESSURE.
      HI  - HEAT INDEX.          WCI   - WIND CHILL INDEX.

*  THESE STATIONS ARE NOT NWS OR FAA STATIONS AND ARE NOT UNDER
   NWS QUALITY CONTROL.

LAZ038-040-048-061>063-065>067-069-271500-
SOUTHEAST LOUISIANA

CITY           SKY/WX    TMP DP  RH WIND       PRES   REMARKS
N.O. INTL ARPT CLOUDY    81  72  74 E7        30.04R
N.O. LAKEFRONT PTSUNNY   80  70  71 NE9       30.05R
N.O. DOWNTOWN*   N/A     81  71  71 VRB5        N/A
RESERVE*         N/A     80  72  76 E3        30.04S
SLIDELL        CLOUDY    76  67  73 N5        30.04R
BATON ROUGE    CLOUDY    77  67  71 NE5       30.05R
BOOTHVILLE     CLOUDY    79  72  79 E3        30.04R
BELLE CHASSE   CLOUDY    80  70  72 VRB3      30.01R
BOGALUSA*        N/A     73  67  82 CALM      30.07R
GALLIANO*      DRIZZLE   78  74  86 CALM      30.04R
NEW ROADS*       N/A     77  71  82 CALM      30.06R
GONZALES*        N/A     76  70  81 CALM      30.04R
HAMMOND*       CLOUDY    75  63  64 NE3       30.05S
HOUMA*         NOT AVBL
PORT FOURCHON* SUNNY    N/A N/A N/A NE6       30.04R

$$

MSZ070-080>082-271500-
SOUTHERN MISSISSIPPI

CITY           SKY/WX    TMP DP  RH WIND       PRES   REMARKS
MCCOMB         CLOUDY    75  63  66 VRB3      30.07R
GULFPORT       CLOUDY    77  64  64 N5        30.03S
BILOXI         NOT AVBL
PASCAGOULA     PTSUNNY   76  66  71 CALM      30.04S
STENNIS ARPT*  SUNNY     75  64  69 VRB5      30.04S

$$

COASTAL OBSERVATIONS
LAKE AND NEARSHORE STATIONS

STATION/POSITION TIME  TEMP    WIND        PRES    WAVE
                       AIR SEA DIR/SP/G            HT/PER
                 (UTC) (F)     (DEG/KT/KT) (MB)    (FT/S)
PASCAGOULA       1348   77      30/  4/  5 1016.8
WAVELAND YACHT   1348   76 80   40/  7/  9 1017.2
GRAND ISLE       1348   79 85   90/  4/  7 1017.0
SOUTHWEST PASS   1348   83      50/  8/ 10   N/A
NEW CANAL        1348   80 83   60/  8/  9 1017.2
SHELL BEACH      1348   80 85   40/  9/ 11 1017.3

OFFSHORE STATIONS

STATION/POSITION TIME  TEMP    WIND        PRES    WAVE
                       AIR SEA DIR/SP/G            HT/PER
                 (UTC) (F)     (DEG/KT/KT) (MB)    (FT/S)
64 S DAUPHIN ISL 1350   82 85  330/  2/  4 1016.6    2/ 6

$$





USA.gov is the U.S. government's official web portal to all federal, state and local government web resources and services.